This is the latest recevied weather packets stored in our database for station/object WP3OF-1. If no packets are shown the sender has not sent any weather packets the latest 10 day(s).
| Time | Temp. | Humidity | Pressure | Rain* | Wind** | Luminosity | Snow |
|---|---|---|---|---|---|---|---|
| 1778173006 | 27.78° C | 77% | 1017.9 hPa | 0 mm | - | - | - |
| 1778172702 | 27.78° C | 76% | 1017.9 hPa | 0 mm | - | - | - |
| 1778172398 | 28.33° C | 75% | 1017.9 hPa | 0 mm | - | - | - |
| 1778172096 | 28.33° C | 75% | 1018.1 hPa | 0 mm | - | - | - |
| 1778171793 | 28.33° C | 75% | 1017.9 hPa | 0 mm | - | - | - |
| 1778171491 | 28.33° C | 76% | 1018 hPa | 0 mm | - | - | - |
| 1778171186 | 28.33° C | 74% | 1018.2 hPa | 0 mm | - | - | - |
| 1778170883 | 28.33° C | 73% | 1018.2 hPa | 0 mm | - | - | - |
| 1778170579 | 27.78° C | 73% | 1018.1 hPa | 0 mm | - | - | - |
| 1778170276 | 28.33° C | 73% | 1018.1 hPa | 0 mm | - | - | - |
| 1778169973 | 28.33° C | 74% | 1018.1 hPa | 0 mm | - | - | - |
| 1778169669 | 27.78° C | 75% | 1018.1 hPa | 0 mm | - | - | - |
| 1778169364 | 27.78° C | 72% | 1018.2 hPa | 0 mm | - | - | - |
| 1778169062 | 27.22° C | 77% | 1018.2 hPa | 0 mm | - | - | - |
| 1778168758 | 27.78° C | 76% | 1018.2 hPa | 0 mm | - | - | - |
| 1778168455 | 27.78° C | 77% | 1018.4 hPa | 0 mm | - | - | - |
| 1778168152 | 27.78° C | 72% | 1018.6 hPa | 0 mm | - | - | - |
| 1778167848 | 27.78° C | 76% | 1018.4 hPa | 0 mm | - | - | - |
| 1778167544 | 27.78° C | 75% | 1018.6 hPa | 0 mm | - | - | - |
| 1778167241 | 27.78° C | 75% | 1018.4 hPa | 0 mm | - | - | - |
| 1778166937 | 27.22° C | 76% | 1018.7 hPa | 0 mm | - | - | - |
| 1778166634 | 27.78° C | 74% | 1018.7 hPa | 0 mm | - | - | - |
| 1778166331 | 27.78° C | 73% | 1018.6 hPa | 0 mm | - | - | - |
| 1778166028 | 27.22° C | 75% | 1018.4 hPa | 0 mm | - | - | - |
| 1778165728 | 27.78° C | 76% | 1018.6 hPa | 0 mm | - | - | - |
* Rain latest hour (hover to see other rain measurements)
** Current wind speed in m/s (hover to see current wind gust speed)